This is the latest recevied weather packets stored in our database for station/object LZ1HCO-25. If no packets are shown the sender has not sent any weather packets the latest 10 day(s).
| Time | Temp. | Humidity | Pressure | Rain* | Wind** | Luminosity | Snow |
|---|---|---|---|---|---|---|---|
| 1778044802 | 19.44° C | 80% | 968 hPa | - | - | 0 W/m² | - |
| 1778044490 | 18.89° C | 85% | 968 hPa | - | - | 0 W/m² | - |
| 1778044179 | 18.89° C | 86% | 968 hPa | - | - | 0 W/m² | - |
| 1778043868 | 17.78° C | 92% | 968 hPa | - | - | 0 W/m² | - |
| 1778043556 | 17.22° C | 91% | 968 hPa | - | - | 0 W/m² | - |
| 1778043245 | 16.67° C | 93% | 968 hPa | - | - | 0 W/m² | - |
| 1778042934 | 16.67° C | 98% | 968 hPa | - | - | 0 W/m² | - |
| 1778042622 | 16.11° C | 99% | 968 hPa | - | - | 0 W/m² | - |
| 1778042311 | 15.56° C | 99% | 968 hPa | - | - | 0 W/m² | - |
| 1778041999 | 15° C | 96% | 968 hPa | - | - | 0 W/m² | - |
| 1778041688 | 15.56° C | 96% | 968 hPa | - | - | 0 W/m² | - |
| 1778041377 | 15° C | 98% | 968 hPa | - | - | 0 W/m² | - |
| 1778041065 | 14.44° C | 99% | 968 hPa | - | - | 0 W/m² | - |
| 1778040754 | 14.44° C | 99% | 967 hPa | - | - | 0 W/m² | - |
| 1778040445 | 13.89° C | 99% | 967 hPa | - | - | 0 W/m² | - |
| 1778040131 | 13.33° C | 99% | 967 hPa | - | - | 0 W/m² | - |
| 1778039820 | 12.78° C | 99% | 967 hPa | - | - | 0 W/m² | - |
| 1778039509 | 12.78° C | 99% | 967 hPa | - | - | 0 W/m² | - |
| 1778039197 | 12.78° C | 99% | 967 hPa | - | - | 0 W/m² | - |
| 1778038887 | 12.22° C | 99% | 967 hPa | - | - | 0 W/m² | - |
| 1778038575 | 11.67° C | 99% | 967 hPa | - | - | 0 W/m² | - |
| 1778038263 | 11.67° C | 99% | 967 hPa | - | - | 0 W/m² | - |
| 1778037952 | 11.67° C | 99% | 967 hPa | - | - | 0 W/m² | - |
| 1778037641 | 11.67° C | 99% | 967 hPa | - | - | 0 W/m² | - |
| 1778037329 | 11.67° C | 99% | 967 hPa | - | - | 0 W/m² | - |
* Rain since midnight (hover to see other rain measurements)
** Current wind speed in m/s (hover to see current wind gust speed)